When you browse on this site, cookies collect data to enhance your experience and personalize the content and advertising you see.
Visit our Privacy Policy to learn more. By continuing to use the site, you agree to this use of cookies and data.
  • In Czech Republic
  • List of Countries
  • For 7 days
  • Water Temperature
  • Satellite Maps
  • Weather Map
  • Weather Widgets
  • user-avatar
    Login

    Hourly Weather Hartford

    Today, 22 January, Tuesday

    Time Temperature Precipitation Wind Pressure Humidity
    00:00 +4°C° 0 mm 4 mps 749 mmHg 87%
    01:00 +3°C° 0.1 mm 4 mps 748 mmHg 85%
    02:00 +1°C° 0.1 mm 4 mps 748 mmHg 83%
    03:00 +1°C° 0.1 mm 4 mps 747 mmHg 81%
    04:00 +1°C° 0.1 mm 4 mps 747 mmHg 81%
    05:00 0°C° 0.1 mm 4 mps 747 mmHg 82%
    06:00 0°C° 0.1 mm 4 mps 747 mmHg 82%
    07:00 +1°C° 0.1 mm 3 mps 747 mmHg 82%
    08:00 +1°C° 0.1 mm 3 mps 747 mmHg 82%
    09:00 +1°C° 0.1 mm 3 mps 747 mmHg 83%
    10:00 +2°C° 0.2 mm 3 mps 747 mmHg 80%
    11:00 +3°C° 0.2 mm 4 mps 746 mmHg 77%
    12:00 +3°C° 0.2 mm 4 mps 746 mmHg 75%
    13:00 +3°C° 0.5 mm 4 mps 746 mmHg 77%
    14:00 +3°C° 0.5 mm 4 mps 745 mmHg 78%
    15:00 +2°C° 0.5 mm 3 mps 745 mmHg 80%
    16:00 +2°C° 0.3 mm 3 mps 745 mmHg 82%
    17:00 +1°C° 0.3 mm 3 mps 745 mmHg 84%
    18:00 +2°C° 0.3 mm 2 mps 745 mmHg 85%
    19:00 +1°C° 0.2 mm 2 mps 745 mmHg 86%
    20:00 +1°C° 0.2 mm 2 mps 744 mmHg 87%
    21:00 +1°C° 0.2 mm 2 mps 744 mmHg 88%
    22:00 +2°C° 0.2 mm 1 mps 745 mmHg 88%
    23:00 +2°C° 0.2 mm 1 mps 745 mmHg 88%

    Tomorrow, 23 January, Wednesday

    Time Temperature Precipitation Wind Pressure Humidity
    00:00 +1°C° 0.2 mm 1 mps 745 mmHg 89%
    01:00 +1°C° 0.1 mm 1 mps 745 mmHg 88%
    02:00 +1°C° 0.1 mm 1 mps 745 mmHg 88%
    03:00 -1°C° 0.1 mm 2 mps 745 mmHg 88%
    04:00 -1°C° 0 mm 2 mps 746 mmHg 87%
    05:00 -2°C° 0 mm 2 mps 746 mmHg 86%
    06:00 -2°C° 0 mm 2 mps 747 mmHg 85%
    07:00 -2°C° 0 mm 2 mps 747 mmHg 84%
    08:00 -2°C° 0 mm 2 mps 748 mmHg 83%
    09:00 -2°C° 0 mm 2 mps 749 mmHg 81%
    10:00 -1°C° 0 mm 2 mps 749 mmHg 79%
    11:00 +1°C° 0 mm 2 mps 750 mmHg 77%
    12:00 +1°C° 0 mm 3 mps 750 mmHg 75%
    13:00 +2°C° 0 mm 2 mps 751 mmHg 76%
    14:00 +2°C° 0 mm 2 mps 751 mmHg 77%
    15:00 +2°C° 0 mm 2 mps 751 mmHg 77%
    16:00 +2°C° 0 mm 1 mps 752 mmHg 78%
    17:00 +1°C° 0 mm 1 mps 752 mmHg 78%
    18:00 0°C° 0 mm 1 mps 753 mmHg 78%
    19:00 0°C° 0 mm 1 mps 753 mmHg 78%
    20:00 0°C° 0 mm 1 mps 754 mmHg 77%
    21:00 0°C° 0 mm 1 mps 754 mmHg 76%
    22:00 +1°C° 0 mm 1 mps 755 mmHg 77%
    23:00 +1°C° 0 mm 1 mps 755 mmHg 78%

    Day after tomorrow, 24 January, Thursday

    Time Temperature Precipitation Wind Pressure Humidity
    00:00 +1°C° 0 mm 1 mps 755 mmHg 80%
    01:00 +1°C° 0 mm 1 mps 755 mmHg 81%
    02:00 +1°C° 0 mm 1 mps 756 mmHg 83%
    03:00 +1°C° 0 mm 1 mps 756 mmHg 85%
    04:00 +1°C° 0 mm 1 mps 756 mmHg 86%
    05:00 +1°C° 0 mm 1 mps 756 mmHg 87%
    06:00 -1°C° 0 mm 2 mps 756 mmHg 88%
    07:00 +1°C° 0 mm 2 mps 756 mmHg 88%
    08:00 +1°C° 0 mm 2 mps 757 mmHg 88%
    09:00 +1°C° 0 mm 2 mps 757 mmHg 88%
    10:00 +2°C° 0 mm 2 mps 757 mmHg 88%
    11:00 +2°C° 0 mm 2 mps 757 mmHg 89%
    12:00 +3°C° 0 mm 2 mps 757 mmHg 89%
    13:00 +3°C° 0.1 mm 2 mps 757 mmHg 91%
    14:00 +3°C° 0.1 mm 2 mps 757 mmHg 92%
    15:00 +4°C° 0.1 mm 2 mps 756 mmHg 94%
    16:00 +4°C° 0.5 mm 2 mps 756 mmHg 95%
    17:00 +4°C° 0.5 mm 2 mps 756 mmHg 96%
    18:00 +4°C° 0.5 mm 2 mps 756 mmHg 97%
    19:00 +5°C° 0.3 mm 2 mps 756 mmHg 97%
    20:00 +5°C° 0.3 mm 2 mps 756 mmHg 98%
    21:00 +6°C° 0.3 mm 2 mps 757 mmHg 98%
    22:00 +5°C° 0.1 mm 3 mps 757 mmHg 98%
    23:00 +7°C° 0.1 mm 3 mps 757 mmHg 98%

    25 January, Friday

    Time Temperature Precipitation Wind Pressure Humidity
    00:00 +7°C° 0.1 mm 3 mps 757 mmHg 97%
    01:00 +6°C° 0.2 mm 4 mps 757 mmHg 97%
    02:00 +6°C° 0.2 mm 4 mps 757 mmHg 97%
    03:00 +7°C° 0.2 mm 4 mps 757 mmHg 97%
    04:00 +6°C° 0.1 mm 4 mps 757 mmHg 97%
    05:00 +6°C° 0.1 mm 4 mps 756 mmHg 96%
    06:00 +6°C° 0.1 mm 4 mps 756 mmHg 96%
    07:00 +7°C° 0 mm 3 mps 756 mmHg 95%
    08:00 +5°C° 0 mm 3 mps 756 mmHg 95%
    09:00 +5°C° 0 mm 3 mps 757 mmHg 94%
    10:00 +7°C° 0 mm 3 mps 756 mmHg 90%
    11:00 +8°C° 0 mm 3 mps 756 mmHg 85%
    12:00 +8°C° 0 mm 4 mps 756 mmHg 81%
    13:00 +9°C° 0 mm 3 mps 755 mmHg 83%
    14:00 +8°C° 0 mm 3 mps 754 mmHg 84%
    15:00 +8°C° 0 mm 3 mps 753 mmHg 86%
    16:00 +8°C° 0.2 mm 3 mps 753 mmHg 88%
    17:00 +7°C° 0.2 mm 4 mps 752 mmHg 90%
    18:00 +7°C° 0.2 mm 4 mps 751 mmHg 92%
    19:00 +7°C° 1.2 mm 4 mps 751 mmHg 92%
    20:00 +7°C° 1.2 mm 4 mps 750 mmHg 93%
    21:00 +7°C° 1.2 mm 5 mps 750 mmHg 94%
    22:00 +6°C° 0.1 mm 4 mps 750 mmHg 91%
    23:00 +5°C° 0.1 mm 4 mps 749 mmHg 88%

    26 January, Saturday

    Time Temperature Precipitation Wind Pressure Humidity
    00:00 +5°C° 0.1 mm 4 mps 749 mmHg 85%
    01:00 +4°C° 0 mm 3 mps 749 mmHg 84%
    02:00 +4°C° 0 mm 3 mps 749 mmHg 83%
    03:00 +4°C° 0 mm 3 mps 749 mmHg 82%
    04:00 +4°C° 0.1 mm 3 mps 749 mmHg 82%
    05:00 +4°C° 0.1 mm 3 mps 749 mmHg 83%
    06:00 +4°C° 0.1 mm 4 mps 749 mmHg 84%
    07:00 +3°C° 0.1 mm 3 mps 749 mmHg 82%
    08:00 +3°C° 0.1 mm 3 mps 749 mmHg 81%
    09:00 +3°C° 0.1 mm 3 mps 749 mmHg 79%
    10:00 +4°C° 0.2 mm 4 mps 749 mmHg 75%
    11:00 +3°C° 0.2 mm 5 mps 749 mmHg 72%
    12:00 +4°C° 0.2 mm 6 mps 749 mmHg 68%
    13:00 +4°C° 0.1 mm 6 mps 749 mmHg 69%
    14:00 +3°C° 0.1 mm 5 mps 749 mmHg 70%
    15:00 +3°C° 0.1 mm 5 mps 749 mmHg 71%
    16:00 +3°C° 0 mm 5 mps 749 mmHg 74%
    17:00 +3°C° 0 mm 4 mps 750 mmHg 76%
    18:00 +3°C° 0 mm 4 mps 750 mmHg 79%
    19:00 +3°C° 0 mm 4 mps 751 mmHg 78%
    20:00 +1°C° 0 mm 4 mps 751 mmHg 78%
    21:00 +1°C° 0 mm 4 mps 752 mmHg 77%
    22:00 +1°C° 0 mm 4 mps 752 mmHg 77%
    23:00 +1°C° 0 mm 3 mps 753 mmHg 76%

    27 January, Sunday

    Time Temperature Precipitation Wind Pressure Humidity
    00:00 +1°C° 0 mm 3 mps 753 mmHg 75%
    01:00 +1°C° 0 mm 3 mps 753 mmHg 75%
    02:00 +1°C° 0 mm 3 mps 753 mmHg 75%
    03:00 +1°C° 0 mm 2 mps 753 mmHg 75%
    04:00 +1°C° 0 mm 2 mps 753 mmHg 76%
    05:00 +1°C° 0 mm 2 mps 754 mmHg 77%
    06:00 +2°C° 0 mm 1 mps 754 mmHg 78%
    07:00 +1°C° 0 mm 2 mps 754 mmHg 78%
    08:00 +1°C° 0 mm 2 mps 754 mmHg 78%
    09:00 +2°C° 0 mm 2 mps 754 mmHg 78%
    10:00 +3°C° 0.1 mm 2 mps 754 mmHg 75%
    11:00 +3°C° 0.1 mm 3 mps 754 mmHg 72%
    12:00 +4°C° 0.1 mm 3 mps 753 mmHg 70%
    13:00 +4°C° 0.1 mm 3 mps 753 mmHg 71%
    14:00 +5°C° 0.1 mm 2 mps 753 mmHg 72%
    15:00 +5°C° 0.1 mm 2 mps 752 mmHg 73%
    16:00 +5°C° 0 mm 1 mps 752 mmHg 75%
    17:00 +4°C° 0 mm 1 mps 753 mmHg 78%
    18:00 +3°C° 0 mm 0 mps 753 mmHg 80%
    19:00 +3°C° 0 mm 1 mps 753 mmHg 82%
    20:00 +3°C° 0 mm 1 mps 753 mmHg 83%
    21:00 +3°C° 0 mm 1 mps 754 mmHg 85%
    22:00 +3°C° 0 mm 1 mps 754 mmHg 86%
    23:00 +2°C° 0 mm 2 mps 754 mmHg 86%
    Show more